Location: Bouchavesnes-Bergen
(49.9859°N, 2.9203°E)
Time: 22:50:15
(UTC+00:00)

Cosmos 2333 Rocket - Pass Details

Date: 09 March 2021
Orbit: 837 x 864 km, 70.8° (Epoch: 13 April)

Event Time Altitude Azimuth Distance (km) Brightness Sun altitude
Rises 04:19:55 0° 327° (NNW) 3,451 5.2 -19.1°
Reaches altitude 10° 04:22:26 10° 323° (NW) 2,512 4.5 -18.7°
Maximum altitude 04:28:01 52° 249° (WSW) 1,063 2.3 -17.9°
Drops below altitude 10° 04:33:35 10° 174° (S) 2,499 4.6 -17.0°
Sets 04:36:05 0° 170° (S) 3,430 5.3 -16.6°
